Вернуться в каталог

FENGYUN 1C DEB

АктивенPO
NORAD 38115·DEBRIS·🇨🇳 China

Запущен May 10, 1999 с Taiyuan Satellite Launch Center

Loading…

Ближайшие Пролёты (ближайшие 24 часа)

TLE

СвежийSource: Space-Track

Эпоха: Sep 12, 2026, 03:47 UTC

1 38115U 99025EPL 26255.15826422  .00005235  00000-0  25992-2 0  9997
2 38115  97.6988  36.0306 0253713 169.9089 190.7314 14.02084822278483

Отслеживайте FENGYUN 1C DEB в реальном времени с AllMySat

Download on the App Store